Date String (YYYY-MM-DD hh:mm:ss) UTC,Instrument flags,Ambient pressure (hPa),Sample flow (lpm),Bypass flow (lpm),Sample temperature (°C),Ambient temperature (°C),ASC tube jacket temperature (°C),LED temperature (°C),Box temperature (°C),Sample RH (%),Span deviation,Mass concentration (μg/m³),Mass concentration (μg/m³),Mass concentration (μg/m³)
DateTimeUTC,F1_M11,P_M11,Q1_M11,Q2_M11,T1_M11,T2_M11,T3_M11,T4_M11,T5_M11,U1_M11,ZSPAN_M11,X0_M11,X2_M11,X1_M11
2022-09-29 08:00:00,,0831.1,5.00,0.00,30.4,28.7,00.0,39.2,32.1,13.7,0000.0,0006.11,0003.35,0002.95
2022-09-29 08:01:00,,0831.2,4.99,0.00,30.4,28.8,00.0,39.2,32.1,13.6,0000.0,0006.16,0003.35,0002.94
2022-09-29 08:02:00,,0831.1,5.00,0.00,30.4,28.8,00.0,39.2,32.1,13.7,0000.0,0005.87,0003.35,0002.93
2022-09-29 08:03:00,,0831.2,5.00,0.00,30.4,28.9,00.0,39.2,32.2,13.7,0000.0,0005.04,0003.31,0002.91
2022-09-29 08:04:00,,0831.2,5.01,0.00,30.4,28.9,00.0,39.2,32.2,13.7,0000.0,0005.01,0003.31,0002.90
2022-09-29 08:05:00,,0831.1,4.99,0.00,30.4,29.0,00.0,39.2,32.2,13.7,0000.0,0005.09,0003.32,0002.88
2022-09-29 08:06:00,,0831.2,5.01,0.00,30.4,29.0,00.0,39.2,32.2,13.7,0000.0,0005.06,0003.31,0002.86
2022-09-29 08:07:00,,0831.1,4.99,0.00,30.4,29.0,00.0,39.2,32.2,13.8,0000.0,0005.27,0003.34,0002.86
2022-09-29 08:08:00,,0831.2,5.01,0.00,30.4,29.1,00.0,39.2,32.2,13.7,0000.0,0005.46,0003.38,0002.88
2022-09-29 08:09:00,,0831.2,4.99,0.00,30.5,29.1,00.0,39.2,32.3,13.7,0000.0,0005.51,0003.40,0002.90
2022-09-29 08:10:00,,0831.2,5.01,0.00,30.5,29.1,00.0,39.2,32.3,13.7,0000.0,0005.50,0003.40,0002.92
2022-09-29 08:11:00,,0831.2,5.00,0.00,30.5,29.1,00.0,39.2,32.3,13.8,0000.0,0005.54,0003.39,0002.96
2022-09-29 08:12:00,,0831.2,4.99,0.00,30.5,29.2,00.0,39.2,32.3,13.8,0000.0,0005.78,0003.41,0002.98
2022-09-29 08:13:00,,0831.2,5.00,0.00,30.5,29.2,00.0,39.2,32.3,13.9,0000.0,0005.72,0003.43,0002.99
2022-09-29 08:14:00,,0831.2,5.00,0.00,30.5,29.3,00.0,39.2,32.3,13.9,0000.0,0005.95,0003.50,0003.04
2022-09-29 08:15:00,,0831.2,5.01,0.00,30.5,29.3,00.0,39.3,32.4,13.8,0000.0,0006.06,0003.53,0003.08
2022-09-29 08:16:00,,0831.2,4.99,0.00,30.5,29.3,00.0,39.3,32.4,13.7,0000.0,0006.28,0003.57,0003.13
2022-09-29 08:17:00,,0831.1,5.01,0.00,30.6,29.3,00.0,39.3,32.4,13.6,0000.0,0006.67,0003.64,0003.18
2022-09-29 08:18:00,,0831.1,4.99,0.00,30.6,29.3,00.0,39.3,32.4,13.6,0000.0,0006.83,0003.69,0003.23
2022-09-29 08:19:00,,0831.2,5.01,0.00,30.6,29.4,00.0,39.3,32.4,13.7,0000.0,0006.90,0003.74,0003.29
2022-09-29 08:20:00,,0831.2,4.99,0.00,30.6,29.3,00.0,39.3,32.4,13.7,0000.0,0007.04,0003.78,0003.33
2022-09-29 08:21:00,,0831.2,5.01,0.00,30.6,29.3,00.0,39.3,32.4,13.7,0000.0,0007.10,0003.81,0003.38
2022-09-29 08:22:00,,0831.2,5.00,0.00,30.6,29.3,00.0,39.3,32.5,13.6,0000.0,0007.12,0003.89,0003.42
2022-09-29 08:23:00,,0831.2,5.01,0.00,30.6,29.4,00.0,39.4,32.5,13.6,0000.0,0007.39,0003.96,0003.46
2022-09-29 08:24:00,,0831.2,4.99,0.00,30.7,29.4,00.0,39.4,32.5,13.7,0000.0,0007.66,0003.97,0003.49
2022-09-29 08:25:00,,0831.2,5.01,0.00,30.7,29.4,00.0,39.4,32.5,13.7,0000.0,0007.68,0003.98,0003.50
2022-09-29 08:26:00,,0831.2,5.00,0.00,30.7,29.4,00.0,39.4,32.5,13.7,0000.0,0007.71,0003.99,0003.52
2022-09-29 08:27:00,,0831.2,5.01,0.00,30.7,29.4,00.0,39.4,32.5,13.7,0000.0,0007.72,0004.01,0003.52
2022-09-29 08:28:00,,0831.2,4.99,0.00,30.7,29.4,00.0,39.4,32.5,13.7,0000.0,0007.75,0004.04,0003.52
2022-09-29 08:29:00,,0831.2,5.01,0.00,30.7,29.4,00.0,39.4,32.5,13.7,0000.0,0008.21,0004.03,0003.51
2022-09-29 08:30:00,,0831.2,5.00,0.00,30.7,29.4,00.0,39.4,32.6,13.6,0000.0,0008.33,0004.03,0003.50
2022-09-29 08:31:00,,0831.1,4.99,0.00,30.7,29.4,00.0,39.4,32.6,13.6,0000.0,0009.28,0004.00,0003.49
2022-09-29 08:32:00,,0831.1,5.02,0.00,30.8,29.5,00.0,39.5,32.6,13.7,0000.0,0009.39,0003.99,0003.46
2022-09-29 08:33:00,,0831.2,4.99,0.00,30.8,29.5,00.0,39.5,32.6,13.6,0000.0,0009.22,0003.92,0003.44
2022-09-29 08:34:00,,0831.1,5.01,0.00,30.8,29.5,00.0,39.5,32.6,13.7,0000.0,0008.88,0003.85,0003.42
2022-09-29 08:35:00,,0831.1,4.99,0.00,30.8,29.5,00.0,39.5,32.6,13.7,0000.0,0008.61,0003.83,0003.41
2022-09-29 08:36:00,,0831.0,5.01,0.00,30.8,29.5,00.0,39.5,32.6,13.7,0000.0,0009.05,0003.79,0003.40
2022-09-29 08:37:00,,0831.0,4.99,0.00,30.8,29.5,00.0,39.5,32.6,13.7,0000.0,0009.41,0003.78,0003.39
2022-09-29 08:38:00,,0831.0,5.02,0.00,30.8,29.5,00.0,39.5,32.6,13.7,0000.0,0009.33,0003.74,0003.37
2022-09-29 08:39:00,,0831.0,4.99,0.00,30.8,29.5,00.0,39.5,32.6,13.6,0000.0,0009.19,0003.68,0003.36
2022-09-29 08:40:00,,0831.0,5.00,0.00,30.8,29.5,00.0,39.5,32.6,13.6,0000.0,0008.90,0003.65,0003.35
2022-09-29 08:41:00,,0831.0,4.99,0.00,30.8,29.5,00.0,39.6,32.7,13.5,0000.0,0008.74,0003.66,0003.34
2022-09-29 08:42:00,,0831.0,5.01,0.00,30.9,29.5,00.0,39.6,32.7,13.5,0000.0,0007.96,0003.68,0003.34
2022-09-29 08:43:00,,0831.0,4.99,0.00,30.9,29.6,00.0,39.6,32.7,13.5,0000.0,0007.69,0003.67,0003.35
2022-09-29 08:44:00,,0830.9,5.00,0.00,30.9,29.6,00.0,39.6,32.7,13.5,0000.0,0007.73,0003.68,0003.35
2022-09-29 08:45:00,,0830.9,4.99,0.00,30.9,29.5,00.0,39.6,32.7,13.5,0000.0,0007.84,0003.70,0003.33
2022-09-29 08:46:00,,0830.9,5.01,0.00,30.9,29.5,00.0,39.6,32.7,13.5,0000.0,0008.07,0003.73,0003.31
2022-09-29 08:47:00,,0830.9,5.01,0.00,30.9,28.3,00.0,39.6,32.6,13.5,0000.0,0007.73,0003.74,0003.30
2022-09-29 08:48:00,,0830.9,5.00,0.00,30.8,27.2,00.0,39.5,32.5,13.6,0000.0,0007.07,0003.72,0003.28
2022-09-29 08:49:00,,0830.9,4.99,0.00,30.8,27.1,00.0,39.5,32.4,13.6,0000.0,0007.08,0003.71,0003.27
2022-09-29 08:50:00,,0830.9,5.00,0.00,30.7,27.3,00.0,39.4,32.2,13.6,0000.0,0006.88,0003.68,0003.26
2022-09-29 08:51:00,,0830.9,5.00,0.00,30.6,27.7,00.0,39.4,32.1,13.7,0000.0,0006.67,0003.68,0003.24
2022-09-29 08:52:00,,0830.9,5.00,0.00,30.5,28.0,00.0,39.4,32.1,13.8,0000.0,0007.00,0003.64,0003.22
2022-09-29 08:53:00,,0830.8,5.00,0.00,30.5,28.2,00.0,39.3,32.1,13.9,0000.0,0006.90,0003.60,0003.20
2022-09-29 08:54:00,,0830.8,5.00,0.00,30.5,28.4,00.0,39.3,32.1,13.9,0000.0,0006.71,0003.55,0003.17
2022-09-29 08:55:00,,0830.8,5.01,0.00,30.4,28.6,00.0,39.3,32.1,13.9,0000.0,0006.70,0003.55,0003.15
2022-09-29 08:56:00,,0830.8,4.99,0.00,30.4,28.7,00.0,39.3,32.1,13.9,0000.0,0006.69,0003.51,0003.13
2022-09-29 08:57:00,,0830.9,5.01,0.00,30.4,28.8,00.0,39.3,32.2,13.9,0000.0,0006.61,0003.49,0003.12
2022-09-29 08:58:00,,0830.9,5.00,0.00,30.4,28.9,00.0,39.2,32.2,14.0,0000.0,0006.48,0003.48,0003.12
2022-09-29 08:59:00,,0830.9,5.01,0.00,30.4,28.9,00.0,39.2,32.2,13.9,0000.0,0006.47,0003.48,0003.12
